Location: The Decker-Grebner-Van Zandt Observatory
(40.8442°N, 89.8218°W)
Time: 09:20:37
(UTC-06:00)

Envisat - Visible Passes

Search period start: 06 December 2019 00:00
Search period end: 16 December 2019 00:00
Orbit: 764 x 766 km, 98.1° (Epoch: 06 December)

Date Brightness Start Highest point End Pass type
(mag) Time Alt. Az. Time Alt. Az. Time Alt. Az.
06 Dec 4.8 06:12:15 10° NNE 06:16:56 36° E 06:21:34 10° SSE visible
06 Dec 3.2 17:26:26 10° SE 17:31:16 46° ENE 17:36:07 10° N visible
06 Dec 5.5 19:06:48 10° SW 19:10:30 20° W 19:14:13 10° NW visible
07 Dec 6.0 05:36:43 10° NE 05:39:52 16° E 05:42:59 10° SE visible
07 Dec 4.1 18:28:39 10° S 18:33:29 45° W 18:38:21 10° NNW visible
08 Dec 3.6 06:37:27 10° NNE 06:42:31 64° ESE 06:47:32 10° S visible
08 Dec 2.9 17:51:36 10° SSE 17:56:40 82° ENE 18:01:46 10° N visible
08 Dec 6.2 19:34:56 10° WSW 19:36:17 11° W 19:37:39 10° WNW visible
09 Dec 5.2 06:01:12 10° NE 06:05:35 28° E 06:09:56 10° SSE visible
09 Dec 3.5 17:15:26 10° SE 17:20:03 37° ENE 17:24:42 10° N visible
09 Dec 5.2 18:54:57 10° SSW 18:59:07 25° W 19:03:19 10° NW visible
10 Dec 6.2 05:26:18 10° ENE 05:28:27 13° E 05:30:36 10° ESE visible
10 Dec 3.6 18:17:12 10° S 18:22:10 57° W 18:27:11 10° NNW visible
11 Dec 4.1 06:26:15 10° NNE 06:31:13 50° E 06:36:07 10° S visible
11 Dec 2.9 17:40:24 10° SSE 17:45:25 65° ENE 17:50:27 10° N visible
11 Dec 5.9 19:22:09 10° WSW 19:24:52 14° W 19:27:35 10° WNW visible
12 Dec 5.6 05:50:15 10° NE 05:54:13 23° E 05:58:10 10° SE visible
12 Dec 3.8 17:04:30 10° SE 17:08:51 30° ENE 17:13:13 10° N visible
12 Dec 4.7 18:43:16 10° SSW 18:47:47 32° W 18:52:19 10° NNW visible
13 Dec 3.2 18:05:49 10° S 18:10:52 73° WSW 18:15:59 10° NNW visible
14 Dec 4.6 06:15:07 10° NNE 06:19:53 39° E 06:24:37 10° SSE visible
14 Dec 3.1 17:29:18 10° SSE 17:34:10 51° ENE 17:39:05 10° N visible
14 Dec 5.6 19:10:00 10° SW 19:13:28 18° W 19:16:58 10° NW visible
15 Dec 5.9 05:39:26 10° NE 05:42:50 18° E 05:46:14 10° SE visible
15 Dec 4.3 18:31:40 10° SSW 18:36:26 41° W 18:41:13 10° NNW visible
